Location: Escondida
(34.1015°N, 106.8964°W)
Time: 11:11:08
(UTC+00:00)

Cosmos 158 Rocket - Pass Details

Date: 11 December 2025
Orbit: 695 x 785 km, 74.0° (Epoch: 22 January)

Event Time Altitude Azimuth Distance (km) Brightness Sun altitude
Rises 13:10:44 0° 215° (SW) 3,258 7.1 -10.8°
Reaches altitude 10° 13:13:16 10° 223° (SW) 2,330 6.3 -10.3°
Maximum altitude 13:18:13 39° 292° (WNW) 1,155 4.5 -9.3°
Drops below altitude 10° 13:23:07 10° 0° (N) 2,308 6.3 -8.4°
Sets 13:25:38 0° 9° (N) 3,224 7.1 -7.9°
